Temp
19 20 20 18 17 17 16 16 15 15 14 13 13 12 12 11 11 10 10 10 10 10 9 9 8 8 8 7 7 7 6 6 6 5 5 6 6 5 6 6 6 6 6
18 18 18 17 17 16 16 16 15 15 14 14 14 13 12 11 11 11 10 10 9 9 9 9 9 8 7 7 6 6 6 6 5 5 5 5 5 4 4 4 5 5 6
17 17 17 17 16 16 16 15 15 14 14 13 13 12 12 11 11 11 11 10 10 9 9 9 8 8 7 7 6 6 6 5 5 5 4 4 4 4 3 3 3 3 4
17 17 16 16 16 15 15 15 14 14 13 13 12 12 11 11 11 11 11 10 10 9 9 8 8 7 7 6 6 5 5 5 4 4 4 3 3 2 2 2 2 2 2
17 16 16 15 15 15 15 14 14 14 13 13 12 12 12 11 11 11 11 10 10 9 9 8 7 7 6 6 5 4 3 3 3 3 3 2 2 2 2 1 1 2 1
16 16 16 16 15 15 14 14 13 12 12 12 12 11 11 11 11 11 11 10 10 9 9 8 7 6 6 5 4 3 2 2 2 2 2 1 1 1 0 -0 -0 -0 1
17 16 16 15 14 14 14 13 12 12 12 12 11 11 11 10 10 10 10 10 9 9 8 7 6 5 4 4 3 2 0 -0 -0 -0 0 1 1 0 -0 -1 -1 -1 -1
16 15 14 14 13 12 12 12 12 12 11 11 11 11 10 9 9 9 9 9 7 6 6 5 4 4 3 3 0 -1 -1 -0 -2 -0 0 -0 -1 -1 -1 -1 -2 -2 -2
14 13 12 12 12 12 12 11 10 10 10 10 10 9 9 8 8 8 8 8 6 5 4 4 2 3 1 0 -0 -1 -1 -1 -0 -1 -1 -1 -2 -2 -2 -2 -2 -2 -3
12 12 12 11 11 10 10 10 10 10 10 8 7 7 7 7 7 6 5 5 4 3 2 1 -1 -0 -1 -2 -2 -1 -1 -1 -1 -2 -2 -2 -2 -3 -3 -3 -3 -3 -3
11 11 11 11 10 10 9 8 8 7 7 7 6 6 6 6 6 6 5 4 2 2 1 -0 -0 -0 -1 -1 -1 -1 -2 -2 -2 -2 -3 -3 -3 -3 -3 -3 -3 -3 -3
10 10 10 9 9 9 8 8 8 7 6 5 5 5 5 5 4 3 3 2 2 1 0 -0 -1 -1 -2 -2 -2 -2 -2 -3 -3 -3 -4 -4 -4 -4 -4 -4 -4 -4 -4
10 9 9 9 8 8 8 7 6 5 5 4 4 5 4 3 3 2 2 1 0 -0 -0 -1 -1 -2 -2 -2 -3 -3 -3 -4 -4 -4 -5 -5 -4 -5 -5 -5 -5 -5 -5
8 8 8 8 7 7 6 5 5 4 4 3 4 3 2 1 1 0 0 -0 -1 -1 -1 -2 -2 -2 -2 -3 -3 -4 -4 -5 -5 -5 -5 -5 -5 -5 -5 -5 -6 -6 -6
7 7 8 7 6 6 5 5 4 4 3 3 2 2 2 0 -1 -1 -1 -2 -2 -2 -2 -2 -2 -3 -3 -4 -4 -5 -5 -6 -6 -6 -6 -6 -7 -7 -7 -7 -7 -7 -7
7 7 7 6 6 5 5 4 3 2 2 0 1 1 -1 -1 -1 -1 -3 -2 -1 -2 -2 -2 -3 -4 -4 -5 -5 -6 -6 -7 -7 -7 -7 -8 -8 -7 -7 -7 -7 -7 -8
7 7 6 5 5 4 4 3 2 2 0 -0 -1 -1 -1 -1 -1 -2 -2 -2 -2 -2 -3 -3 -4 -4 -5 -6 -7 -7 -8 -8 -8 -8 -8 -8 -8 -8 -8 -7 -7 -7 -7
6 6 6 5 4 4 3 2 2 1 0 -1 -1 -2 -2 -2 -2 -2 -2 -2 -3 -3 -4 -4 -5 -6 -6 -7 -8 -8 -8 -9 -9 -9 -8 -8 -8 -8 -8 -9 -8 -8 -7
6 6 5 5 4 3 2 1 0 0 -0 -0 -1 -1 -2 -2 -2 -2 -2 -3 -3 -4 -5 -5 -6 -7 -8 -8 -8 -9 -9 -9 -9 -9 -9 -9 -9 -8 -9 -9 -9 -9 -8
6 5 4 4 2 2 1 -0 -1 -1 -0 -1 -2 -2 -3 -2 -2 -3 -4 -4 -5 -5 -6 -7 -8 -8 -8 -8 -9 -9 -10 -10 -9 -9 -8 -8 -8 -9 -9 -9 -9 -9 -8
4 4 3 2 1 -0 -1 -2 -2 -2 -2 -2 -2 -2 -2 -3 -4 -4 -4 -5 -6 -6 -7 -8 -9 -9 -9 -9 -9 -9 -10 -9 -9 -9 -8 -8 -9 -9 -8 -8 -9 -9 -8
2 2 1 0 -1 -1 -1 -2 -2 -2 -2 -2 -2 -3 -3 -4 -4 -5 -6 -6 -7 -8 -9 -9 -9 -9 -9 -9 -9 -10 -9 -9 -9 -8 -9 -9 -9 -9 -9 -8 -8 -8 -8
0 0 -1 -1 -1 -1 -1 -1 -1 -2 -2 -2 -3 -3 -4 -4 -5 -6 -6 -7 -8 -9 -10 -10 -10 -10 -9 -9 -10 -9 -9 -9 -8 -9 -9 -10 -10 -10 -9 -9 -8 -8 -8
-1 -2 -1 -1 -2 -1 -1 -1 -2 -2 -2 -3 -3 -4 -4 -5 -6 -7 -8 -9 -9 -10 -10 -10 -10 -10 -10 -10 -10 -10 -9 -9 -9 -9 -10 -10 -10 -9 -9 -8 -7 -7 -7
-2 -2 -2 -3 -3 -3 -3 -2 -3 -3 -3 -4 -4 -5 -5 -6 -7 -8 -9 -9 -10 -10 -10 -11 -11 -11 -10 -10 -10 -10 -10 -9 -9 -9 -10 -10 -10 -9 -8 -8 -7 -7 -7
-2 -3 -3 -3 -3 -3 -2 -3 -3 -4 -4 -4 -5 -6 -6 -8 -9 -9 -9 -10 -10 -11 -11 -11 -11 -11 -11 -11 -10 -10 -10 -9 -9 -10 -10 -11 -11 -10 -9 -8 -8 -7 -7
Height
1515 1514 1514 1518 1522 1525 1527 1527 1527 1527 1526 1525 1524 1523 1522 1521 1520 1519 1518 1518 1518 1517 1516 1515 1515 1514 1513 1512 1512 1512 1512 1511 1509 1507 1506 1505 1503 1503 1502 1499 1497 1495 1494
1516 1516 1519 1523 1524 1524 1524 1524 1524 1524 1524 1523 1521 1519 1518 1516 1515 1514 1513 1511 1511 1512 1512 1511 1510 1509 1509 1508 1508 1507 1507 1507 1505 1503 1502 1498 1496 1496 1496 1494 1492 1491 1489
1516 1518 1520 1522 1523 1523 1523 1522 1522 1521 1520 1519 1517 1515 1513 1510 1508 1507 1505 1504 1504 1503 1503 1503 1503 1502 1502 1502 1503 1502 1501 1500 1499 1499 1499 1496 1493 1489 1487 1486 1485 1484 1483
1520 1520 1521 1521 1522 1522 1522 1520 1518 1516 1515 1514 1512 1509 1507 1504 1501 1499 1497 1497 1496 1494 1494 1495 1495 1495 1495 1496 1495 1494 1494 1494 1493 1493 1493 1493 1492 1488 1478 1479 1479 1478 1474
1520 1520 1521 1520 1520 1519 1518 1516 1515 1513 1512 1511 1508 1505 1501 1498 1495 1493 1491 1489 1488 1486 1485 1486 1486 1487 1487 1488 1488 1488 1487 1486 1486 1485 1484 1486 1486 1485 1482 1469 1470 1469 1467
1521 1521 1519 1518 1517 1515 1515 1513 1511 1511 1510 1509 1506 1501 1497 1492 1488 1485 1482 1481 1479 1478 1478 1477 1478 1478 1477 1478 1478 1478 1478 1480 1479 1478 1477 1478 1479 1476 1475 1470 1465 1463 1459
1518 1517 1517 1515 1514 1513 1512 1510 1510 1510 1508 1505 1501 1496 1490 1486 1481 1478 1475 1474 1471 1469 1470 1470 1470 1468 1468 1467 1468 1469 1471 1472 1472 1472 1472 1473 1472 1470 1468 1466 1460 1457 1454
1517 1517 1515 1514 1513 1511 1510 1510 1508 1505 1501 1496 1492 1488 1482 1478 1475 1472 1468 1464 1463 1462 1462 1462 1463 1462 1461 1461 1462 1461 1464 1464 1465 1466 1466 1466 1464 1463 1461 1459 1457 1448 1445
1516 1516 1515 1515 1513 1512 1510 1507 1503 1499 1493 1487 1481 1476 1472 1470 1467 1462 1459 1456 1455 1453 1454 1455 1456 1455 1457 1459 1459 1460 1460 1460 1460 1459 1458 1458 1456 1455 1454 1452 1450 1447 1438
1515 1514 1513 1512 1511 1508 1506 1502 1498 1491 1484 1479 1475 1471 1467 1464 1462 1457 1454 1453 1450 1450 1451 1450 1452 1453 1453 1455 1455 1455 1455 1453 1452 1451 1450 1449 1448 1446 1445 1444 1441 1439 1435
1515 1514 1513 1511 1508 1505 1500 1495 1489 1483 1478 1473 1469 1464 1460 1456 1454 1453 1451 1450 1450 1449 1450 1449 1451 1451 1451 1451 1450 1450 1449 1447 1445 1444 1442 1439 1439 1436 1435 1434 1431 1429 1428
1517 1512 1510 1506 1503 1498 1492 1487 1482 1477 1473 1467 1462 1458 1455 1452 1450 1449 1448 1449 1449 1448 1448 1447 1447 1447 1446 1446 1445 1443 1441 1439 1437 1435 1433 1430 1429 1426 1425 1423 1421 1419 1418
1515 1510 1506 1499 1495 1489 1485 1480 1475 1470 1467 1462 1458 1454 1451 1448 1447 1446 1445 1444 1444 1445 1445 1444 1443 1442 1441 1439 1438 1435 1433 1430 1428 1426 1424 1421 1419 1416 1415 1414 1411 1410 1408
1509 1505 1500 1494 1491 1485 1481 1477 1471 1468 1463 1459 1454 1452 1450 1447 1444 1443 1442 1442 1441 1440 1441 1440 1439 1437 1435 1433 1429 1427 1424 1421 1419 1417 1415 1412 1410 1408 1405 1403 1401 1399 1396
1503 1498 1495 1490 1485 1480 1476 1472 1467 1462 1458 1455 1452 1450 1445 1444 1442 1440 1439 1439 1438 1437 1437 1435 1433 1431 1429 1425 1421 1419 1416 1413 1409 1406 1403 1400 1398 1395 1393 1390 1387 1387 1384
1498 1494 1490 1486 1481 1476 1472 1467 1463 1457 1452 1448 1445 1442 1439 1439 1439 1437 1435 1436 1435 1433 1432 1430 1427 1424 1421 1418 1414 1411 1407 1403 1399 1393 1390 1386 1384 1381 1379 1378 1377 1376 1372
1494 1490 1486 1483 1478 1472 1467 1462 1456 1450 1446 1443 1442 1439 1437 1436 1434 1434 1433 1432 1431 1429 1427 1424 1420 1417 1413 1410 1407 1403 1398 1392 1387 1384 1381 1377 1374 1372 1369 1366 1365 1363 1362
1489 1486 1482 1479 1474 1469 1464 1458 1452 1447 1444 1443 1441 1439 1437 1436 1434 1433 1432 1429 1427 1424 1421 1417 1414 1409 1406 1403 1398 1394 1388 1383 1379 1376 1373 1368 1364 1361 1358 1355 1352 1350 1348
1485 1480 1477 1473 1468 1463 1459 1453 1451 1446 1441 1441 1440 1438 1438 1437 1434 1431 1428 1425 1422 1418 1415 1411 1407 1403 1399 1395 1390 1385 1379 1375 1371 1368 1364 1360 1355 1352 1349 1345 1342 1339 1336
1482 1475 1470 1466 1462 1457 1452 1448 1447 1447 1438 1439 1439 1438 1436 1434 1429 1427 1424 1421 1417 1413 1409 1405 1402 1398 1392 1388 1383 1379 1374 1369 1364 1359 1354 1350 1346 1342 1338 1335 1331 1328 1326
1475 1470 1464 1461 1457 1453 1449 1447 1445 1445 1440 1440 1439 1437 1433 1430 1426 1423 1420 1416 1412 1407 1403 1400 1396 1392 1387 1381 1377 1373 1369 1364 1358 1352 1346 1342 1338 1333 1329 1325 1322 1319 1319
1471 1466 1459 1455 1453 1449 1445 1445 1445 1442 1439 1437 1435 1433 1430 1426 1422 1419 1415 1411 1407 1403 1399 1394 1389 1386 1381 1377 1372 1367 1364 1359 1353 1347 1341 1335 1330 1325 1320 1317 1314 1312 1310
1463 1459 1455 1452 1449 1447 1445 1444 1442 1440 1437 1435 1432 1429 1426 1422 1418 1414 1410 1407 1404 1399 1395 1390 1385 1380 1376 1371 1367 1363 1358 1354 1349 1343 1337 1330 1324 1317 1313 1309 1306 1305 1303
1458 1456 1452 1449 1448 1444 1444 1444 1441 1437 1435 1432 1429 1425 1421 1418 1414 1411 1408 1404 1400 1396 1391 1386 1382 1377 1372 1368 1363 1358 1354 1350 1345 1340 1334 1327 1320 1314 1310 1304 1302 1300 1298
1458 1455 1451 1449 1448 1445 1443 1441 1438 1435 1432 1428 1425 1421 1418 1414 1412 1408 1404 1401 1398 1394 1388 1384 1380 1375 1369 1365 1361 1356 1351 1347 1343 1338 1332 1324 1318 1313 1308 1304 1301 1299 1296
1456 1454 1452 1450 1446 1443 1441 1438 1435 1432 1428 1425 1421 1418 1415 1412 1409 1405 1402 1400 1395 1391 1387 1383 1378 1373 1368 1363 1357 1353 1349 1345 1341 1336 1330 1325 1320 1315 1310 1306 1302 1299 1296
Wind_Speed
7 7 17 19 17 12 9 12 14 15 17 19 21 22 24 23 25 26 28 26 25 26 25 22 21 21 20 17 15 15 15 14 14 19 21 22 20 19 26 17 20 21 18
16 14 13 10 7 5 7 9 12 14 15 18 20 22 24 25 26 25 25 27 29 29 28 27 28 24 22 20 19 18 18 15 13 18 20 17 30 24 27 32 28 26 25
13 10 6 2 4 5 7 8 9 12 14 17 19 22 26 30 32 32 31 31 30 34 33 32 31 29 27 25 24 23 22 18 17 17 15 14 16 38 33 33 30 26 31
8 7 4 4 4 4 6 8 9 13 15 17 21 24 27 31 33 35 34 32 35 32 32 31 31 29 27 25 24 23 21 19 20 17 18 21 25 30 36 35 33 34 33
7 6 5 3 4 8 9 9 11 13 14 18 22 28 31 34 34 35 36 36 36 35 31 30 33 31 29 26 22 18 17 20 15 12 16 22 29 33 35 39 35 41 36
5 4 4 8 9 7 8 11 11 9 12 18 22 28 31 35 38 39 40 39 41 40 38 32 36 34 31 31 30 28 25 21 23 24 25 29 35 34 33 34 38 35 40
9 7 7 7 6 7 8 7 9 15 19 26 28 33 34 36 35 35 37 39 43 40 38 31 32 33 31 32 29 25 23 25 27 29 24 31 35 34 34 35 37 35 32
5 1 0 2 3 2 6 12 16 22 24 26 33 38 39 33 32 34 34 35 35 29 30 30 29 26 20 24 27 26 29 32 23 23 30 34 35 35 35 35 34 37 34
9 13 12 10 6 10 14 17 21 27 32 39 41 33 31 33 34 32 29 27 29 31 29 30 25 30 34 30 31 23 17 18 24 30 31 32 33 34 34 35 33 33 32
12 9 9 3 6 12 19 27 33 37 38 33 28 29 31 31 28 23 14 18 26 26 21 19 16 23 26 16 16 17 22 27 30 32 34 36 36 35 33 33 33 32 35
8 11 11 13 20 26 29 33 36 32 33 29 29 30 29 29 27 20 19 18 19 16 22 22 19 17 12 13 18 24 27 30 33 34 36 38 37 37 36 35 36 36 35
10 13 19 24 29 31 33 33 34 31 31 32 35 29 24 22 16 13 12 13 15 18 13 13 12 13 16 19 23 28 30 33 35 36 35 36 34 35 36 36 36 37 38
17 20 27 30 31 35 31 35 31 28 30 33 29 26 21 15 13 13 13 14 13 10 11 12 16 18 21 27 29 30 33 33 35 35 35 36 36 38 38 37 37 38 39
20 25 31 34 32 33 33 31 30 28 33 34 25 14 11 11 11 11 10 10 9 7 13 16 20 24 27 29 32 32 33 36 33 34 34 37 40 42 44 44 44 44 45
20 27 32 35 33 33 31 32 27 32 37 31 25 19 16 15 12 9 9 10 17 16 15 22 25 26 29 30 32 34 34 34 38 40 43 45 46 47 47 46 47 44 45
24 35 32 34 32 31 29 26 30 34 36 29 21 21 18 16 17 15 13 12 12 13 19 24 26 28 32 32 29 30 33 38 43 44 41 36 32 31 30 31 32 33 35
32 39 33 32 31 31 27 32 32 31 18 14 14 15 13 12 12 7 4 8 13 19 24 26 29 32 28 29 31 35 34 37 35 34 33 32 32 32 33 35 35 33 33
36 35 33 31 32 29 32 32 24 10 11 9 8 7 6 7 4 6 10 17 21 24 27 30 29 30 32 32 31 34 35 33 31 30 32 35 36 36 35 35 35 36 36
30 31 26 31 28 30 31 25 15 10 9 9 8 6 3 8 13 19 20 21 23 27 29 28 31 29 29 32 34 32 28 28 30 33 32 31 32 32 32 32 34 37 39
31 27 26 24 27 30 26 18 13 11 5 5 8 10 12 18 17 19 21 23 25 25 28 27 25 29 33 29 25 23 23 28 29 30 29 30 30 28 28 29 30 33 34
24 24 25 27 31 21 15 6 6 6 6 9 14 16 16 18 19 21 21 21 25 25 24 26 28 28 23 24 21 21 21 24 28 30 32 31 27 27 27 26 26 29 29
32 31 33 25 16 16 9 8 6 9 12 13 14 16 18 20 20 20 21 22 21 22 25 28 28 24 23 22 24 19 20 21 24 27 28 28 27 28 25 24 22 23 24
35 26 15 14 13 8 9 10 11 9 15 15 17 21 21 20 20 22 20 19 21 22 25 24 26 26 26 29 21 20 21 20 21 23 23 22 24 21 20 20 19 21 23
21 18 15 14 9 10 6 9 13 14 16 19 22 24 21 21 19 17 18 19 19 19 20 25 25 25 29 26 21 25 23 19 16 18 22 20 19 13 14 12 9 8 12
20 17 13 11 7 7 10 15 15 14 17 21 22 21 19 17 15 18 16 15 15 16 21 21 21 25 28 22 22 24 18 16 17 19 19 23 20 19 19 14 10 10 12
12 10 10 13 15 14 14 14 16 18 19 20 21 17 15 14 18 18 16 13 16 17 18 15 19 23 17 19 22 18 13 14 13 13 18 23 21 20 20 19 17 14 13
Wind_Direction
124 185 213 204 201 214 250 294 310 317 310 304 303 296 296 292 281 266 277 271 275 278 276 270 265 260 259 263 261 269 283 291 300 307 310 309 312 315 314 312 304 285 289
100 106 133 162 192 245 284 311 318 317 315 317 308 298 295 292 289 285 274 273 267 270 265 264 270 260 249 250 250 256 270 271 285 301 304 314 309 314 312 307 308 302 291
119 116 124 163 277 296 303 292 303 307 302 305 300 295 291 288 286 287 282 273 266 264 264 262 264 258 251 245 249 254 263 259 271 289 284 308 302 311 311 307 308 305 300
122 130 159 199 226 265 277 281 302 319 310 308 301 293 281 280 289 288 286 279 271 268 257 260 257 250 241 241 241 240 244 259 269 261 268 296 301 305 306 301 298 299 295
153 165 187 211 271 288 288 301 310 307 312 315 313 310 302 297 297 294 285 278 269 263 258 251 247 240 239 235 223 228 254 260 253 276 293 298 298 293 294 297 300 295 298
189 242 270 270 277 293 304 303 298 304 306 303 305 303 298 298 294 291 289 283 273 260 253 241 235 234 231 235 239 244 257 244 256 268 276 292 301 297 296 294 296 295 298
247 227 247 252 244 269 286 288 300 304 308 297 300 303 297 295 289 286 284 285 268 253 254 234 218 220 219 231 236 244 255 266 272 281 296 290 288 290 292 292 292 291 293
225 331 298 185 191 316 310 312 310 299 299 299 303 304 303 299 296 296 295 287 262 233 227 223 216 224 232 249 244 256 267 273 291 295 288 287 287 287 287 287 290 292 292
55 57 47 15 345 329 323 316 315 313 311 308 308 306 300 301 304 303 296 279 230 212 208 231 229 253 260 274 288 291 289 296 291 287 287 287 287 287 285 284 284 287 289
62 30 21 44 336 325 323 321 315 316 319 318 312 310 308 307 306 302 274 239 215 205 207 224 255 298 319 303 306 305 299 293 290 291 290 288 288 287 285 284 284 282 285
50 32 13 350 335 325 328 325 323 324 324 322 319 316 304 302 298 281 254 230 215 226 257 296 315 314 300 305 299 293 289 289 290 290 289 288 287 285 285 284 283 282 281
2 354 340 336 334 332 329 326 327 323 329 328 327 312 294 280 262 248 243 249 257 267 301 325 319 315 307 296 291 292 294 293 291 291 290 289 291 289 288 287 284 281 282
332 335 335 333 333 331 327 325 325 324 328 325 326 307 282 262 264 265 258 257 266 285 306 316 320 310 296 296 298 296 297 295 294 292 288 286 286 286 285 283 280 279 279
325 329 336 333 329 329 328 327 325 323 324 333 322 276 260 258 243 227 235 256 270 293 318 315 304 299 297 297 298 298 295 295 291 288 285 283 282 282 282 281 280 280 280
307 327 327 331 328 332 330 325 319 318 319 320 309 277 263 233 216 224 237 260 291 307 311 299 299 295 299 301 298 299 297 292 289 287 285 284 283 283 282 282 282 281 279
322 325 321 328 326 321 321 316 313 317 319 316 290 273 248 235 247 269 332 347 320 298 288 295 301 302 302 302 301 297 293 292 292 292 293 294 294 292 288 282 279 277 276
322 319 316 317 318 316 312 315 320 327 330 316 308 294 299 332 7 353 303 283 290 298 302 303 304 306 306 304 300 299 300 300 297 296 297 297 293 291 288 286 281 278 276
317 320 316 315 310 310 311 316 323 334 5 351 354 341 329 316 303 313 303 300 303 305 305 308 309 306 305 306 306 305 303 300 296 295 296 297 297 295 295 292 288 278 283
317 316 309 310 307 311 314 318 309 305 312 317 295 293 312 314 312 305 306 308 307 308 309 309 308 311 311 310 309 308 304 303 301 300 301 300 300 300 296 287 278 277 277
317 308 307 301 307 315 315 311 297 326 350 339 311 319 310 304 310 313 310 310 310 310 309 310 313 312 311 312 313 310 311 307 309 312 310 311 309 305 302 293 281 277 275
316 307 308 312 315 316 305 332 337 358 16 334 311 308 315 315 313 312 312 314 312 312 312 314 316 320 323 320 321 319 311 314 318 315 315 315 315 308 305 296 284 272 274
319 313 312 313 316 305 317 312 279 321 316 310 319 320 318 317 317 316 317 316 315 319 318 319 324 329 329 331 332 326 323 322 322 315 316 316 313 309 301 293 288 283 277
323 328 330 321 324 338 314 281 293 303 313 316 325 325 322 319 316 317 318 320 323 320 321 329 330 332 334 336 334 330 332 332 325 327 327 323 319 314 309 305 289 280 279
338 336 326 305 317 324 325 315 314 308 318 322 323 322 320 317 319 319 322 323 323 325 331 333 332 331 328 333 337 334 331 335 327 338 351 342 340 341 340 336 335 330 320
324 323 335 31 22 348 325 312 303 307 315 318 320 320 318 321 328 331 326 327 328 329 331 329 326 325 328 336 327 324 330 321 322 329 350 1 6 13 16 20 10 350 354
333 346 336 328 333 333 306 297 309 317 322 324 325 324 323 327 338 334 324 329 329 331 329 323 319 326 328 321 320 328 321 317 328 355 9 17 15 19 17 18 22 16 5